LOGRONO / AGONCILLO current weather conditions

sailwx.info

Wind from 250 at 7 knots

Air temperature 23.0° C
Dewpoint 10.0° C

Last reported at 2014-Oct-24 11:00 UTC.
Time now 2014-Oct-24 13:30 UTC

Location: N 42°27' W 002°20'.
View on Google Maps.

See reports from other nearby stations

  
Tides and Currents Weather Stations Pressure Air Temp Water Temp Dewpoint Dewpoint Depression Visibility Wind Speed Wind Dir Waves Ship Positions
date/time (UTC)wind fromknots sea level pressurealtimeterstation pressurevisibilityair tempwater tempwave heightnotes
2014-Oct-24 11:00 250 7 23.0
2014-Oct-24 10:00 260 9 20.0
2014-Oct-24 09:00 270 9 18.0
2014-Oct-24 08:00 270 7 15.0
2014-Oct-24 07:00 280 7 12.0
2014-Oct-24 06:00 270 6 12.0
2014-Oct-24 05:00 260 7 10.0
2014-Oct-24 04:00 270 6 11.0
2014-Oct-24 03:00 270 4 10.0
2014-Oct-24 01:00 12.0
2014-Oct-24 00:00 240 5 11.0
2014-Oct-23 23:00 260 3 12.0
2014-Oct-23 22:00 270 4 12.0
2014-Oct-23 21:00 12.0
2014-Oct-23 20:00 15.0
2014-Oct-23 19:00 15.0
2014-Oct-23 18:00 310 3 18.0
2014-Oct-23 17:00 310 5 22.0
2014-Oct-23 15:00 290 8 26.0
2014-Oct-23 14:00 300 9 26.0
2014-Oct-23 12:00 280 11 24.0
2014-Oct-23 11:00 260 11 20.0
2014-Oct-23 10:00 260 11 17.0
2014-Oct-23 09:00 280 11 14.0
2014-Oct-23 08:00 270 9 11.0
2014-Oct-23 07:00 270 10 8.0
2014-Oct-23 06:00 260 7 8.0
2014-Oct-23 05:00 270 7 7.0
2014-Oct-23 04:00 280 8 7.0
2014-Oct-23 03:00 270 8 8.0
2014-Oct-23 02:00 280 7 9.0
2014-Oct-23 01:00 280 9 9.0
2014-Oct-23 00:00 10.0
2014-Oct-22 23:00 11.0
2014-Oct-22 22:00 11.0
2014-Oct-22 21:00 280 3 11.0
2014-Oct-22 20:00 13.0
2014-Oct-22 19:00 15.0
2014-Oct-22 18:00 310 3 16.0
2014-Oct-22 17:00 18.0
2014-Oct-22 16:00 300 6 20.0
2014-Oct-22 15:00 260 8 5.420.0
2014-Oct-22 14:00 270 10 5.420.0
2014-Oct-22 13:00 270 11 5.420.0